Whiteman AFB, MO

9:09 PM CST on November 23, 2017 (GMT -0600)
Whiteman Air Force Base

Weather History for KSZL - June, 2013

Change the Weather History Date:

Monday, June 10, 2013

  Actual Average Record
Temperature  
Mean Temperature 71 °F -  
Max Temperature 83 °F 79 °F 92 °F (2015)
Min Temperature 59 °F 61 °F 59 °F (1997)
Cooling Degree Days 6    
Growing Degree Days 21 (Base 50)    
Moisture  
Dew Point 63 °F    
Average Humidity 77    
Maximum Humidity 100    
Minimum Humidity 52    
Precipitation  
Precipitation 0.00 in - - ()
Sea Level Pressure  
Sea Level Pressure 29.86 in    
Wind  
Wind Speed 6 mph (WSW)    
Max Wind Speed 12 mph    
Max Gust Speed -    
Visibility 10 miles    
Events Rain    
Averages and records for this station are not official NWS values.
T = Trace of Precipitation, MM = Missing Value Source: NWS Daily Summary

Daily Weather History Graph

Daily Weather History Graph

Search for Another Location

Airport or City:

Trip Planner

Search our weather history database for the weather conditions in past years. The results will help you decide how hot, cold, wet, or windy it might be!

Date:

Astronomy

Jun. 10, 2013 Rise Set
Actual Time 5:48 AM CDT 8:38 PM CDT
Civil Twilight 5:17 AM CDT 9:10 PM CDT
Nautical Twilight 4:37 AM CDT 9:50 PM CDT
Astronomical Twilight 3:51 AM CDT 10:36 PM CDT
Moon 7:37 AM CDT (6/10) 10:07 PM CDT (6/10)
Length of Visible Light 15h 53m
Length of Day
14h 49m
Waxing Crescent, 4% of the Moon is Illuminated
Jun 10
Waxing Crescent
Jun 16
First Quarter
Jun 23
Full
Jun 29
Last Quarter
Jul 8
New

Hourly Weather History & Observations

Time (CDT) Temp. Heat Index Dew Point Humidity Pressure Visibility Wind Dir Wind Speed Gust Speed Precip Events Conditions
12:58 AM 60.1 °F - 60.1 °F 100% 29.83 in 10.0 mi WSW 3.5 mph - N/A   Clear
1:58 AM 59.2 °F - 59.2 °F 100% 29.83 in 10.0 mi SW 4.6 mph - N/A   Clear
2:58 AM 61.9 °F - 61.5 °F 99% 29.81 in 10.0 mi WSW 5.8 mph - N/A   Clear
3:58 AM 60.3 °F - 60.1 °F 99% 29.83 in 10.0 mi West 5.8 mph - N/A   Clear
4:58 AM 61.5 °F - 59.9 °F 94% 29.83 in 10.0 mi West 5.8 mph - N/A   Clear
5:58 AM 61.2 °F - 60.6 °F 98% 29.84 in 10.0 mi West 5.8 mph - N/A   Clear
6:58 AM 62.4 °F - 61.7 °F 97% 29.86 in 10.0 mi WNW 4.6 mph - N/A   Clear
7:58 AM 65.1 °F - 61.7 °F 89% 29.88 in 10.0 mi WNW 9.2 mph - N/A   Clear
8:58 AM 67.8 °F - 61.7 °F 81% 29.88 in 10.0 mi NW 11.5 mph - N/A   Clear
9:58 AM 71.2 °F - 62.4 °F 74% 29.88 in 10.0 mi NW 9.2 mph - N/A   Clear
10:58 AM 72.7 °F - 62.4 °F 70% 29.89 in 10.0 mi WNW 9.2 mph - N/A   Clear
11:58 AM 74.7 °F - 63.3 °F 68% 29.90 in 10.0 mi NNW 9.2 mph - N/A   Clear
12:58 PM 76.6 °F - 63.9 °F 65% 29.89 in 10.0 mi WNW 6.9 mph - N/A   Clear
1:58 PM 78.4 °F - 64.4 °F 62% 29.88 in 10.0 mi WNW 4.6 mph - N/A   Clear
2:58 PM 80.6 °F 82.2 °F 64.0 °F 57% 29.88 in 10.0 mi WNW 6.9 mph - N/A   Clear
3:58 PM 82.0 °F 83.4 °F 63.7 °F 54% 29.87 in 10.0 mi West 3.5 mph - N/A   Clear
4:58 PM 83.1 °F 84.4 °F 63.9 °F 52% 29.87 in 10.0 mi Variable 3.5 mph - N/A   Clear
5:58 PM 83.1 °F 84.6 °F 64.2 °F 53% 29.86 in 10.0 mi Variable 1.2 mph - N/A   Clear
6:58 PM 82.2 °F 84.0 °F 64.9 °F 56% 29.86 in 10.0 mi SSW 3.5 mph - N/A   Clear
7:58 PM 79.5 °F - 67.5 °F 66% 29.86 in 10.0 mi ESE 4.6 mph - N/A   Clear
8:52 PM 75.2 °F - 66.2 °F 73% 29.87 in 10.0 mi SE 4.6 mph - N/A Rain Light Rain
8:58 PM 74.5 °F - 66.6 °F 76% 29.86 in 10.0 mi SE 3.5 mph - 0.00 in   Light Drizzle
9:02 PM 73.4 °F - 66.2 °F 78% 29.87 in 10.0 mi SE 4.6 mph - N/A   Clear
9:58 PM 72.3 °F - 66.0 °F 80% 29.86 in 10.0 mi SSE 5.8 mph - 0.00 in   Clear
10:58 PM 70.3 °F - 67.3 °F 90% 29.87 in 10.0 mi SE 6.9 mph - N/A   Clear
11:58 PM 70.5 °F - 65.5 °F 84% 29.87 in 10.0 mi SE 8.1 mph - N/A   Clear